Time,TemperatureF,DewpointF,PressureIn,WindDirection,WindDirectionDegrees,WindSpeedMPH,WindSpeedGustMPH,Humidity,HourlyPrecipIn,Conditions,Clouds,dailyrainin,SoftwareType,DateUTC
2013-01-27 00:00:00,37.8,28.9,29.84,NNW,338,0.0,10.0,70,0.00,CLR,,0.00,WeatherDisplay:10.37,2013-01-26 23:00:00,
2013-01-27 00:30:00,37.4,29.6,29.84,East,83,0.0,6.0,73,0.00,CLR,,0.00,WeatherDisplay:10.37,2013-01-26 23:30:00,
2013-01-27 01:00:00,34.4,28.9,29.85,SSE,157,0.0,6.0,80,0.00,CLR,,0.00,WeatherDisplay:10.37,2013-01-27 00:00:00,
2013-01-27 01:30:00,36.3,29.8,29.85,NE,47,2.0,9.0,77,0.00,CLR,,0.00,WeatherDisplay:10.37,2013-01-27 00:30:00,
2013-01-27 02:00:00,36.2,28.7,29.86,ESE,123,0.0,8.0,74,0.00,CLR,,0.00,WeatherDisplay:10.37,2013-01-27 01:00:00,
2013-01-27 02:30:00,33.4,28.5,29.88,SE,144,0.0,3.0,82,0.00,CLR,,0.00,WeatherDisplay:10.37,2013-01-27 01:30:00,
2013-01-27 03:00:00,31.9,27.9,29.89,SE,144,0.0,1.0,85,0.00,CLR,,0.00,WeatherDisplay:10.37,2013-01-27 02:00:00,
2013-01-27 03:30:00,32.2,28.2,29.89,SE,144,0.0,2.0,85,0.00,CLR,,0.00,WeatherDisplay:10.37,2013-01-27 02:30:00,
2013-01-27 04:00:00,33.5,29.4,29.90,SE,136,1.0,4.0,85,0.00,CLR,,0.00,WeatherDisplay:10.37,2013-01-27 03:00:00,
2013-01-27 04:30:00,37.2,29.4,29.90,ENE,75,3.0,9.0,73,0.00,CLR,,0.00,WeatherDisplay:10.37,2013-01-27 03:30:00,
2013-01-27 05:00:00,38.6,29.6,29.90,ENE,74,5.0,12.0,70,0.00,CLR,,0.00,WeatherDisplay:10.37,2013-01-27 04:00:00,
2013-01-27 05:30:00,36.2,28.3,29.90,NE,53,0.0,8.0,73,0.00,CLR,,0.00,WeatherDisplay:10.37,2013-01-27 04:30:00,
2013-01-27 06:00:00,38.1,30.5,29.90,North,11,5.0,8.0,74,0.00,CLR,,0.00,WeatherDisplay:10.37,2013-01-27 05:00:00,
2013-01-27 06:30:00,39.0,30.4,29.91,North,9,2.0,10.0,71,0.00,CLR,,0.00,WeatherDisplay:10.37,2013-01-27 05:30:00,
2013-01-27 07:00:00,39.4,30.1,29.91,North,360,3.0,10.0,69,0.00,CLR,,0.00,WeatherDisplay:10.37,2013-01-27 06:00:00,
2013-01-27 07:30:00,39.2,29.9,29.91,NE,42,5.0,10.0,69,0.00,CLR,,0.00,WeatherDisplay:10.37,2013-01-27 06:30:00,
2013-01-27 08:00:00,39.1,29.1,29.92,NNW,342,2.0,12.0,67,0.00,CLR,,0.00,WeatherDisplay:10.37,2013-01-27 07:00:00,
2013-01-27 08:30:00,37.7,29.5,29.93,South,175,0.0,4.0,72,0.00,CLR,,0.00,WeatherDisplay:10.37,2013-01-27 07:30:00,
2013-01-27 09:00:00,38.1,29.9,29.94,WNW,285,1.0,4.0,72,0.00,CLR,,0.00,WeatherDisplay:10.37,2013-01-27 08:00:00,
2013-01-27 09:30:00,38.2,30.0,29.95,NW,310,0.0,3.0,72,0.00,CLR,,0.00,WeatherDisplay:10.37,2013-01-27 08:30:00,
2013-01-27 10:00:00,40.2,31.9,29.96,SW,228,1.0,3.0,72,0.00,CLR,,0.00,WeatherDisplay:10.37,2013-01-27 09:00:00,
2013-01-27 10:30:00,41.2,31.1,29.97,WNW,299,0.0,5.0,67,0.00,CLR,,0.00,WeatherDisplay:10.37,2013-01-27 09:30:00,
2013-01-27 11:00:00,42.6,32.4,29.97,NW,310,2.0,5.0,67,0.00,CLR,,0.00,WeatherDisplay:10.37,2013-01-27 10:00:00,
2013-01-27 11:30:00,43.3,33.8,29.98,WNW,298,0.0,4.0,69,0.00,CLR,,0.00,WeatherDisplay:10.37,2013-01-27 10:30:00,
2013-01-27 12:00:00,43.8,33.2,29.97,SSW,209,1.0,4.0,66,0.00,CLR,,0.00,WeatherDisplay:10.37,2013-01-27 11:00:00,
2013-01-27 12:30:00,44.9,35.0,29.97,South,170,1.0,5.0,68,0.00,CLR,,0.00,WeatherDisplay:10.37,2013-01-27 11:30:00,
2013-01-27 13:00:00,46.0,34.1,29.97,SSE,165,1.0,5.0,63,0.00,CLR,,0.00,WeatherDisplay:10.37,2013-01-27 12:00:00,
2013-01-27 13:30:00,46.5,34.2,29.96,SSE,160,1.0,6.0,62,0.00,CLR,,0.00,WeatherDisplay:10.37,2013-01-27 12:30:00,
2013-01-27 14:00:00,47.1,34.3,29.96,SSW,206,1.0,5.0,61,0.00,CLR,,0.00,WeatherDisplay:10.37,2013-01-27 13:00:00,
2013-01-27 14:30:00,47.1,33.5,29.95,South,183,2.0,5.0,59,0.00,CLR,,0.00,WeatherDisplay:10.37,2013-01-27 13:30:00,
2013-01-27 15:00:00,46.2,33.5,29.96,SW,221,1.0,5.0,61,0.00,CLR,,0.00,WeatherDisplay:10.37,2013-01-27 14:00:00,
2013-01-27 15:30:00,46.1,34.6,29.96,West,278,1.0,5.0,64,0.00,CLR,,0.00,WeatherDisplay:10.37,2013-01-27 14:30:00,
2013-01-27 16:00:00,45.3,33.8,29.96,West,279,0.0,4.0,64,0.00,CLR,,0.00,WeatherDisplay:10.37,2013-01-27 15:00:00,
2013-01-27 16:30:00,44.0,32.2,29.96,West,279,0.0,3.0,63,0.00,CLR,,0.00,WeatherDisplay:10.37,2013-01-27 15:30:00,
2013-01-27 17:00:00,43.1,32.5,29.97,West,279,0.0,2.0,66,0.00,CLR,,0.00,WeatherDisplay:10.37,2013-01-27 16:00:00,
2013-01-27 17:30:00,40.6,32.0,29.97,West,279,0.0,1.0,71,0.00,CLR,,0.00,WeatherDisplay:10.37,2013-01-27 16:30:00,
2013-01-27 17:59:00,38.9,30.9,29.98,West,279,0.0,1.0,73,0.00,CLR,,0.00,WeatherDisplay:10.37,2013-01-27 16:59:00,
2013-01-27 18:29:00,36.8,30.6,29.99,West,279,0.0,2.0,78,0.00,CLR,,0.00,WeatherDisplay:10.37,2013-01-27 17:29:00,
2013-01-27 18:59:00,37.4,32.4,29.99,West,279,0.0,3.0,82,0.00,CLR,,0.00,WeatherDisplay:10.37,2013-01-27 17:59:00,
2013-01-27 19:29:00,36.6,32.5,29.99,West,279,1.0,2.0,85,0.00,CLR,,0.00,WeatherDisplay:10.37,2013-01-27 18:29:00,
2013-01-27 19:59:00,36.1,32.3,29.99,NE,54,0.0,4.0,86,0.00,CLR,,0.00,WeatherDisplay:10.37,2013-01-27 18:59:00,
2013-01-27 20:29:00,35.9,32.1,29.99,NE,54,0.0,3.0,86,0.00,CLR,,0.00,WeatherDisplay:10.37,2013-01-27 19:29:00,
2013-01-27 20:59:00,36.6,33.1,30.00,NE,54,0.0,3.0,87,0.00,CLR,,0.00,WeatherDisplay:10.37,2013-01-27 19:59:00,
2013-01-27 21:29:00,36.4,33.2,30.00,NE,54,0.0,2.0,88,0.00,CLR,,0.00,WeatherDisplay:10.37,2013-01-27 20:29:00,
2013-01-27 21:59:00,37.4,34.5,29.99,NE,54,0.0,0.0,89,0.00,CLR,,0.00,WeatherDisplay:10.37,2013-01-27 20:59:00,
2013-01-27 22:30:00,38.1,35.5,29.99,NE,54,0.0,1.0,90,0.00,CLR,,0.00,WeatherDisplay:10.37,2013-01-27 21:30:00,
2013-01-27 23:00:00,37.6,34.9,29.99,NE,54,0.0,1.0,90,0.00,CLR,,0.00,WeatherDisplay:10.37,2013-01-27 22:00:00,
2013-01-27 23:30:00,38.2,35.5,30.00,NE,54,0.0,1.0,90,0.00,CLR,,0.00,WeatherDisplay:10.37,2013-01-27 22:30:00,